Time,TemperatureF,DewpointF,PressureIn,WindDirection,WindDirectionDegrees,WindSpeedMPH,WindSpeedGustMPH,Humidity,HourlyPrecipIn,Conditions,Clouds,dailyrainin,SoftwareType,DateUTC
2013-04-26 00:00:00,56.8,-6.6,29.86,SW,223,0.0,0.0,7,0.00,,---,0.00,VWS V14.01,2013-04-26 07:00:00,
2013-04-26 00:05:00,55.6,-7.6,29.86,SW,223,0.0,0.0,7,0.00,,---,0.00,VWS V14.01,2013-04-26 07:05:00,
2013-04-26 00:10:00,55.0,-5.2,29.86,SW,223,0.0,0.0,8,0.00,,---,0.00,VWS V14.01,2013-04-26 07:10:00,
2013-04-26 00:15:00,55.0,-5.2,29.89,SW,223,0.0,0.0,8,0.00,,---,0.00,VWS V14.01,2013-04-26 07:15:00,
2013-04-26 00:20:00,55.0,-5.2,29.89,SW,223,0.0,0.0,8,0.00,,---,0.00,VWS V14.01,2013-04-26 07:20:00,
2013-04-26 00:25:00,54.3,-5.8,29.89,SW,223,0.0,0.0,8,0.00,,---,0.00,VWS V14.01,2013-04-26 07:25:00,
2013-04-26 00:30:00,54.3,-5.8,29.89,SW,223,0.0,0.0,8,0.00,,---,0.00,VWS V14.01,2013-04-26 07:30:00,
2013-04-26 00:35:00,54.7,-5.5,29.89,SW,220,0.0,0.0,8,0.00,,---,0.00,VWS V14.01,2013-04-26 07:35:00,
2013-04-26 00:40:00,54.7,-5.5,29.89,SW,221,0.0,0.0,8,0.00,,---,0.00,VWS V14.01,2013-04-26 07:40:00,
2013-04-26 00:45:00,54.9,-5.3,29.89,SW,221,0.0,0.0,8,0.00,,---,0.00,VWS V14.01,2013-04-26 07:45:00,
2013-04-26 00:50:00,54.9,-5.3,29.89,SW,219,0.0,0.0,8,0.00,,---,0.00,VWS V14.01,2013-04-26 07:50:00,
2013-04-26 00:55:00,54.9,-5.3,29.89,SW,219,0.0,0.0,8,0.00,,---,0.00,VWS V14.01,2013-04-26 07:55:00,
2013-04-26 01:00:00,54.9,-5.3,29.89,SW,219,0.0,0.0,8,0.00,,---,0.00,VWS V14.01,2013-04-26 08:00:00,
2013-04-26 01:05:00,54.9,-5.3,29.89,SW,219,0.0,0.0,8,0.00,,---,0.00,VWS V14.01,2013-04-26 08:05:00,
2013-04-26 01:10:00,54.9,-5.3,29.89,SW,219,0.0,0.0,8,0.00,,---,0.00,VWS V14.01,2013-04-26 08:10:00,
2013-04-26 01:15:00,54.9,-5.3,29.89,SSW,213,0.0,0.0,8,0.00,,---,0.00,VWS V14.01,2013-04-26 08:15:00,
2013-04-26 01:20:00,54.9,-5.3,29.89,SSW,213,0.0,0.0,8,0.00,,---,0.00,VWS V14.01,2013-04-26 08:20:00,
2013-04-26 01:25:00,54.3,-5.8,29.89,SSW,213,0.0,0.0,8,0.00,,---,0.00,VWS V14.01,2013-04-26 08:25:00,
2013-04-26 01:30:00,54.3,-5.8,29.89,SSW,213,0.0,0.0,8,0.00,,---,0.00,VWS V14.01,2013-04-26 08:30:00,
2013-04-26 01:35:00,53.8,-6.2,29.89,SSW,213,0.0,0.0,8,0.00,,---,0.00,VWS V14.01,2013-04-26 08:35:00,
2013-04-26 01:40:00,53.8,-6.2,29.89,SSW,213,0.0,0.0,8,0.00,,---,0.00,VWS V14.01,2013-04-26 08:40:00,
2013-04-26 01:45:00,53.8,-6.2,29.89,SSW,213,0.0,0.0,8,0.00,,---,0.00,VWS V14.01,2013-04-26 08:45:00,
2013-04-26 01:50:00,53.8,-6.2,29.89,SSW,213,0.0,0.0,8,0.00,,---,0.00,VWS V14.01,2013-04-26 08:50:00,
2013-04-26 01:55:00,53.2,-6.6,29.89,SSW,213,0.0,0.0,8,0.00,,---,0.00,VWS V14.01,2013-04-26 08:55:00,
2013-04-26 02:00:00,52.9,-6.8,29.89,SSW,213,0.0,0.0,8,0.00,,---,0.00,VWS V14.01,2013-04-26 09:00:00,
2013-04-26 02:05:00,52.9,-6.8,29.89,SSW,213,0.0,0.0,8,0.00,,---,0.00,VWS V14.01,2013-04-26 09:05:00,
2013-04-26 02:10:00,52.9,-6.8,29.89,SSW,213,0.0,0.0,8,0.00,,---,0.00,VWS V14.01,2013-04-26 09:10:00,
2013-04-26 02:15:00,52.0,-7.5,29.89,SSW,213,0.0,0.0,8,0.00,,---,0.00,VWS V14.01,2013-04-26 09:15:00,
2013-04-26 02:20:00,52.2,-7.4,29.89,SSW,213,0.0,0.0,8,0.00,,---,0.00,VWS V14.01,2013-04-26 09:20:00,
2013-04-26 02:25:00,52.2,-7.4,29.89,SSW,213,0.0,0.0,8,0.00,,---,0.00,VWS V14.01,2013-04-26 09:25:00,
2013-04-26 02:30:00,52.2,-7.4,29.89,SSW,213,0.0,0.0,8,0.00,,---,0.00,VWS V14.01,2013-04-26 09:30:00,
2013-04-26 02:35:00,51.4,-5.5,29.86,SSW,213,0.0,0.0,9,0.00,,---,0.00,VWS V14.01,2013-04-26 09:35:00,
2013-04-26 02:40:00,51.4,-5.5,29.86,SSW,213,0.0,0.0,9,0.00,,---,0.00,VWS V14.01,2013-04-26 09:40:00,
2013-04-26 02:45:00,50.7,-6.1,29.86,SSW,213,0.0,0.0,9,0.00,,---,0.00,VWS V14.01,2013-04-26 09:45:00,
2013-04-26 02:51:00,50.2,-6.5,29.89,SSW,213,0.0,0.0,9,0.00,,---,0.00,VWS V14.01,2013-04-26 09:51:00,
2013-04-26 02:56:00,50.2,-6.5,29.89,SSW,213,0.0,0.0,9,0.00,,---,0.00,VWS V14.01,2013-04-26 09:56:00,
2013-04-26 03:01:00,50.4,-6.3,29.89,SSW,213,0.0,0.0,9,0.00,,---,0.00,VWS V14.01,2013-04-26 10:01:00,
2013-04-26 03:06:00,50.2,-6.5,29.89,SSW,213,0.0,0.0,9,0.00,,---,0.00,VWS V14.01,2013-04-26 10:06:00,
2013-04-26 03:11:00,49.8,-6.7,29.89,SSW,213,0.0,0.0,9,0.00,,---,0.00,VWS V14.01,2013-04-26 10:11:00,
2013-04-26 03:16:00,49.5,-7.0,29.89,SSW,213,0.0,0.0,9,0.00,,---,0.00,VWS V14.01,2013-04-26 10:16:00,
2013-04-26 03:21:00,49.6,-6.9,29.89,SSW,213,0.0,0.0,9,0.00,,---,0.00,VWS V14.01,2013-04-26 10:21:00,
2013-04-26 03:26:00,50.2,-6.5,29.89,SSW,213,0.0,0.0,9,0.00,,---,0.00,VWS V14.01,2013-04-26 10:26:00,
2013-04-26 03:31:00,50.0,-6.6,29.89,SSW,213,0.0,0.0,9,0.00,,---,0.00,VWS V14.01,2013-04-26 10:31:00,
2013-04-26 03:36:00,49.5,-7.0,29.92,SSW,213,0.0,0.0,9,0.00,,---,0.00,VWS V14.01,2013-04-26 10:36:00,
2013-04-26 03:41:00,48.9,-7.4,29.92,SSW,213,0.0,0.0,9,0.00,,---,0.00,VWS V14.01,2013-04-26 10:41:00,
2013-04-26 03:46:00,48.7,-7.6,29.92,SSW,213,0.0,0.0,9,0.00,,---,0.00,VWS V14.01,2013-04-26 10:46:00,
2013-04-26 03:51:00,48.6,-7.7,29.92,SSW,213,0.0,0.0,9,0.00,,---,0.00,VWS V14.01,2013-04-26 10:51:00,
2013-04-26 03:56:00,48.4,-7.8,29.92,SSW,213,0.0,0.0,9,0.00,,---,0.00,VWS V14.01,2013-04-26 10:56:00,
2013-04-26 04:01:00,48.6,-7.7,29.92,SSW,213,0.0,0.0,9,0.00,,---,0.00,VWS V14.01,2013-04-26 11:01:00,
2013-04-26 04:06:00,48.7,-7.6,29.92,SSW,213,0.0,0.0,9,0.00,,---,0.00,VWS V14.01,2013-04-26 11:06:00,
2013-04-26 04:11:00,48.9,-7.4,29.92,SSW,213,0.0,0.0,9,0.00,,---,0.00,VWS V14.01,2013-04-26 11:11:00,
2013-04-26 04:16:00,48.7,-7.6,29.92,SSW,213,0.0,0.0,9,0.00,,---,0.00,VWS V14.01,2013-04-26 11:16:00,
2013-04-26 04:21:00,48.4,-7.8,29.92,SSW,213,0.0,0.0,9,0.00,,---,0.00,VWS V14.01,2013-04-26 11:21:00,
2013-04-26 04:26:00,47.8,-8.3,29.92,SSW,213,0.0,0.0,9,0.00,,---,0.00,VWS V14.01,2013-04-26 11:26:00,
2013-04-26 04:31:00,47.8,-8.3,29.92,SSW,213,0.0,0.0,9,0.00,,---,0.00,VWS V14.01,2013-04-26 11:31:00,
2013-04-26 04:36:00,47.8,-8.3,29.92,SSW,213,0.0,0.0,9,0.00,,---,0.00,VWS V14.01,2013-04-26 11:36:00,
2013-04-26 04:41:00,48.4,-7.8,29.92,SSW,213,0.0,0.0,9,0.00,,---,0.00,VWS V14.01,2013-04-26 11:41:00,
2013-04-26 04:46:00,48.4,-7.8,29.92,SSW,213,0.0,0.0,9,0.00,,---,0.00,VWS V14.01,2013-04-26 11:46:00,
2013-04-26 04:51:00,48.2,-8.0,29.92,SSW,213,0.0,0.0,9,0.00,,---,0.00,VWS V14.01,2013-04-26 11:51:00,
2013-04-26 04:56:00,48.0,-8.1,29.92,SSW,213,0.0,0.0,9,0.00,,---,0.00,VWS V14.01,2013-04-26 11:56:00,
2013-04-26 05:01:00,48.0,-8.1,29.92,SSW,213,0.0,0.0,9,0.00,,---,0.00,VWS V14.01,2013-04-26 12:01:00,
2013-04-26 05:06:00,47.5,-8.5,29.92,SSW,213,0.0,0.0,9,0.00,,---,0.00,VWS V14.01,2013-04-26 12:06:00,
2013-04-26 05:11:00,47.5,-8.5,29.92,SSW,213,0.0,0.0,9,0.00,,---,0.00,VWS V14.01,2013-04-26 12:11:00,
2013-04-26 05:16:00,46.9,-8.9,29.92,SSW,213,0.0,0.0,9,0.00,,---,0.00,VWS V14.01,2013-04-26 12:16:00,
2013-04-26 05:21:00,46.9,-8.9,29.92,SSW,213,0.0,0.0,9,0.00,,---,0.00,VWS V14.01,2013-04-26 12:21:00,
2013-04-26 05:27:00,47.5,-8.5,29.92,SSW,213,0.0,0.0,9,0.00,,---,0.00,VWS V14.01,2013-04-26 12:27:00,
2013-04-26 05:32:00,47.5,-8.5,29.92,SSW,213,0.0,0.0,9,0.00,,---,0.00,VWS V14.01,2013-04-26 12:32:00,
2013-04-26 05:37:00,47.1,-8.8,29.92,SW,216,0.0,0.0,9,0.00,,---,0.00,VWS V14.01,2013-04-26 12:37:00,
2013-04-26 05:42:00,47.1,-8.8,29.92,SW,216,0.0,0.0,9,0.00,,---,0.00,VWS V14.01,2013-04-26 12:42:00,
2013-04-26 05:47:00,47.1,-8.8,29.92,WSW,246,0.0,0.0,9,0.00,,---,0.00,VWS V14.01,2013-04-26 12:47:00,
2013-04-26 05:52:00,47.1,-8.8,29.95,WSW,246,0.0,0.0,9,0.00,,---,0.00,VWS V14.01,2013-04-26 12:52:00,
2013-04-26 05:57:00,48.2,-8.0,29.95,WSW,240,0.0,0.0,9,0.00,,---,0.00,VWS V14.01,2013-04-26 12:57:00,
2013-04-26 06:02:00,48.9,-7.4,29.95,WSW,240,0.0,0.0,9,0.00,,---,0.00,VWS V14.01,2013-04-26 13:02:00,
2013-04-26 06:07:00,48.9,-7.4,29.95,WSW,240,0.0,0.0,9,0.00,,---,0.00,VWS V14.01,2013-04-26 13:07:00,
2013-04-26 06:12:00,48.9,-7.4,29.95,WSW,240,0.0,0.0,9,0.00,,---,0.00,VWS V14.01,2013-04-26 13:12:00,
2013-04-26 06:17:00,48.9,-7.4,29.95,WSW,240,0.0,0.0,9,0.00,,---,0.00,VWS V14.01,2013-04-26 13:17:00,
2013-04-26 06:22:00,49.5,-7.0,29.95,WSW,240,0.0,0.0,9,0.00,,---,0.00,VWS V14.01,2013-04-26 13:22:00,
2013-04-26 06:27:00,49.8,-6.7,29.95,WSW,240,0.0,0.0,9,0.00,,---,0.00,VWS V14.01,2013-04-26 13:27:00,
2013-04-26 06:32:00,50.2,-6.5,29.95,WSW,240,0.0,0.0,9,0.00,,---,0.00,VWS V14.01,2013-04-26 13:32:00,
2013-04-26 06:37:00,50.2,-6.5,29.95,WSW,240,0.0,0.0,9,0.00,,---,0.00,VWS V14.01,2013-04-26 13:37:00,
2013-04-26 06:42:00,52.0,-7.5,29.95,WSW,240,0.0,0.0,8,0.00,,---,0.00,VWS V14.01,2013-04-26 13:42:00,
2013-04-26 06:47:00,52.5,-7.1,29.95,WSW,241,0.0,0.0,8,0.00,,---,0.00,VWS V14.01,2013-04-26 13:47:00,
2013-04-26 06:52:00,52.5,-7.1,29.95,WSW,245,0.0,0.0,8,0.00,,---,0.00,VWS V14.01,2013-04-26 13:52:00,
2013-04-26 06:57:00,52.5,-7.1,29.95,NW,315,0.0,0.0,8,0.00,,---,0.00,VWS V14.01,2013-04-26 13:57:00,
2013-04-26 07:02:00,54.9,-5.3,29.95,WNW,303,0.0,0.0,8,0.00,,---,0.00,VWS V14.01,2013-04-26 14:02:00,
2013-04-26 07:07:00,55.2,-5.1,29.95,NW,315,0.0,0.0,8,0.00,,---,0.00,VWS V14.01,2013-04-26 14:07:00,
2013-04-26 07:12:00,55.2,-5.1,29.95,NW,315,0.0,0.0,8,0.00,,---,0.00,VWS V14.01,2013-04-26 14:12:00,
2013-04-26 07:17:00,55.2,-5.1,29.95,NW,315,0.0,0.0,8,0.00,,---,0.00,VWS V14.01,2013-04-26 14:17:00,
2013-04-26 07:22:00,55.2,-5.1,29.98,NW,317,0.0,0.0,8,0.00,,---,0.00,VWS V14.01,2013-04-26 14:22:00,
2013-04-26 07:27:00,55.2,-5.1,29.98,NW,316,0.0,0.0,8,0.00,,---,0.00,VWS V14.01,2013-04-26 14:27:00,
2013-04-26 07:33:00,55.2,-5.1,29.98,NW,317,0.0,0.0,8,0.00,,---,0.00,VWS V14.01,2013-04-26 14:33:00,
2013-04-26 07:38:00,57.0,-6.5,29.98,NNW,335,0.0,0.0,7,0.00,,---,0.00,VWS V14.01,2013-04-26 14:38:00,
2013-04-26 07:43:00,57.4,-6.2,29.98,NNW,330,0.0,0.0,7,0.00,,---,0.00,VWS V14.01,2013-04-26 14:43:00,
2013-04-26 07:48:00,57.7,-5.9,29.98,NNW,331,0.0,0.0,7,0.00,,---,0.00,VWS V14.01,2013-04-26 14:48:00,
2013-04-26 07:53:00,58.1,-5.7,29.98,NNW,335,0.0,0.0,7,0.00,,---,0.00,VWS V14.01,2013-04-26 14:53:00,
2013-04-26 07:58:00,58.1,-5.7,29.98,NNW,335,0.0,0.0,7,0.00,,---,0.00,VWS V14.01,2013-04-26 14:58:00,
2013-04-26 08:03:00,58.1,-5.7,29.98,NNW,333,0.0,0.0,7,0.00,,---,0.00,VWS V14.01,2013-04-26 15:03:00,
2013-04-26 08:08:00,58.1,-5.7,29.98,NNW,331,0.0,0.0,7,0.00,,---,0.00,VWS V14.01,2013-04-26 15:08:00,
2013-04-26 08:13:00,58.1,-5.7,29.98,NNW,340,0.0,0.0,7,0.00,,---,0.00,VWS V14.01,2013-04-26 15:13:00,
2013-04-26 08:18:00,60.1,-4.2,29.98,NNW,340,0.0,0.0,7,0.00,,---,0.00,VWS V14.01,2013-04-26 15:18:00,
2013-04-26 08:23:00,60.1,-4.2,29.98,NNW,340,0.0,0.0,7,0.00,,---,0.00,VWS V14.01,2013-04-26 15:23:00,
2013-04-26 08:28:00,60.1,-4.2,29.98,NNW,338,0.0,0.0,7,0.00,,---,0.00,VWS V14.01,2013-04-26 15:28:00,
2013-04-26 08:33:00,61.7,-6.2,29.98,NNW,338,0.0,0.0,6,0.00,,---,0.00,VWS V14.01,2013-04-26 15:33:00,
2013-04-26 08:38:00,62.2,-5.8,29.98,NNW,340,0.0,0.0,6,0.00,,---,0.00,VWS V14.01,2013-04-26 15:38:00,
2013-04-26 08:43:00,62.2,-5.8,29.98,NNW,339,0.0,0.0,6,0.00,,---,0.00,VWS V14.01,2013-04-26 15:43:00,
2013-04-26 08:48:00,63.1,-5.2,29.98,NNW,339,0.0,0.0,6,0.00,,---,0.00,VWS V14.01,2013-04-26 15:48:00,
2013-04-26 08:53:00,63.1,-5.2,29.98,NNW,339,0.0,0.0,6,0.00,,---,0.00,VWS V14.01,2013-04-26 15:53:00,
2013-04-26 08:58:00,64.0,-4.5,29.98,NNW,338,0.0,0.0,6,0.00,,---,0.00,VWS V14.01,2013-04-26 15:58:00,
2013-04-26 09:03:00,64.2,-4.4,29.98,NNW,341,0.0,0.0,6,0.00,,---,0.00,VWS V14.01,2013-04-26 16:03:00,
2013-04-26 09:08:00,64.2,-4.4,29.98,NNW,341,0.0,0.0,6,0.00,,---,0.00,VWS V14.01,2013-04-26 16:08:00,
2013-04-26 09:13:00,64.2,-4.4,29.98,ENE,78,0.0,0.0,6,0.00,,---,0.00,VWS V14.01,2013-04-26 16:13:00,
2013-04-26 09:18:00,64.2,-4.4,29.98,East,81,0.0,0.0,6,0.00,,---,0.00,VWS V14.01,2013-04-26 16:18:00,
2013-04-26 09:23:00,66.4,-6.6,29.98,East,86,3.6,3.6,5,0.00,,---,0.00,VWS V14.01,2013-04-26 16:23:00,
2013-04-26 09:28:00,66.7,-6.3,29.98,ENE,78,0.0,0.0,5,0.00,,---,0.00,VWS V14.01,2013-04-26 16:28:00,
2013-04-26 09:33:00,66.9,-6.2,29.98,ENE,78,0.0,0.0,5,0.00,,---,0.00,VWS V14.01,2013-04-26 16:33:00,
2013-04-26 09:38:00,66.9,-6.2,29.98,ENE,73,0.0,0.0,5,0.00,,---,0.00,VWS V14.01,2013-04-26 16:38:00,
2013-04-26 09:43:00,66.9,-6.2,29.98,East,88,0.0,0.0,5,0.00,,---,0.00,VWS V14.01,2013-04-26 16:43:00,
2013-04-26 09:48:00,67.6,-5.7,29.98,East,89,0.0,0.0,5,0.00,,---,0.00,VWS V14.01,2013-04-26 16:48:00,
2013-04-26 09:54:00,67.6,-5.7,29.98,East,90,3.1,5.4,5,0.00,,---,0.00,VWS V14.01,2013-04-26 16:54:00,
2013-04-26 09:59:00,67.6,-5.7,29.98,East,92,0.0,0.0,5,0.00,,---,0.00,VWS V14.01,2013-04-26 16:59:00,
2013-04-26 10:04:00,67.6,-5.7,29.98,NE,54,0.0,0.0,5,0.00,,---,0.00,VWS V14.01,2013-04-26 17:04:00,
2013-04-26 10:09:00,69.4,-4.4,29.98,ENE,76,0.0,0.0,5,0.00,,---,0.00,VWS V14.01,2013-04-26 17:09:00,
2013-04-26 10:14:00,69.4,-4.4,29.98,ENE,78,3.1,4.0,5,0.00,,---,0.00,VWS V14.01,2013-04-26 17:14:00,
2013-04-26 10:19:00,70.0,-8.6,29.98,WNW,286,3.6,3.6,4,0.00,,---,0.00,VWS V14.01,2013-04-26 17:19:00,
2013-04-26 10:24:00,70.2,-8.5,29.98,North,0,0.0,0.0,4,0.00,,---,0.00,VWS V14.01,2013-04-26 17:24:00,
2013-04-26 10:29:00,70.2,-8.5,29.98,WNW,298,0.0,0.0,4,0.00,,---,0.00,VWS V14.01,2013-04-26 17:29:00,
2013-04-26 10:34:00,71.2,-7.8,29.95,East,94,3.1,3.1,4,0.00,,---,0.00,VWS V14.01,2013-04-26 17:34:00,
2013-04-26 10:39:00,71.4,-7.6,29.95,NE,47,4.9,4.9,4,0.00,,---,0.00,VWS V14.01,2013-04-26 17:39:00,
2013-04-26 10:44:00,71.4,-7.6,29.95,ENE,71,3.1,3.6,4,0.00,,---,0.00,VWS V14.01,2013-04-26 17:44:00,
2013-04-26 10:49:00,71.4,-7.6,29.95,ESE,117,0.0,0.0,4,0.00,,---,0.00,VWS V14.01,2013-04-26 17:49:00,
2013-04-26 10:54:00,71.4,-7.6,29.95,North,5,0.0,0.0,4,0.00,,---,0.00,VWS V14.01,2013-04-26 17:54:00,
2013-04-26 10:59:00,73.4,-12.1,29.95,ENE,58,3.1,3.1,3,0.00,,---,0.00,VWS V14.01,2013-04-26 17:59:00,
2013-04-26 11:04:00,73.4,-12.1,29.95,East,79,3.6,3.6,3,0.00,,---,0.00,VWS V14.01,2013-04-26 18:04:00,
2013-04-26 11:09:00,73.6,-12.0,29.95,NE,48,4.0,4.0,3,0.00,,---,0.00,VWS V14.01,2013-04-26 18:09:00,
2013-04-26 11:14:00,73.9,-11.7,29.95,NE,35,6.3,6.3,3,0.00,,---,0.00,VWS V14.01,2013-04-26 18:14:00,
2013-04-26 11:19:00,73.9,-11.7,29.95,ENE,70,0.0,0.0,3,0.00,,---,0.00,VWS V14.01,2013-04-26 18:19:00,
2013-04-26 11:24:00,74.8,-11.1,29.95,NE,49,3.1,3.1,3,0.00,,---,0.00,VWS V14.01,2013-04-26 18:24:00,
2013-04-26 11:29:00,75.2,-10.9,29.95,NNW,328,0.0,0.0,3,0.00,,---,0.00,VWS V14.01,2013-04-26 18:29:00,
2013-04-26 11:34:00,75.2,-10.9,29.95,ESE,112,0.0,0.0,3,0.00,,---,0.00,VWS V14.01,2013-04-26 18:34:00,
2013-04-26 11:39:00,75.2,-10.9,29.95,ESE,102,4.5,4.5,3,0.00,,---,0.00,VWS V14.01,2013-04-26 18:39:00,
2013-04-26 11:44:00,77.0,-9.7,29.95,NE,52,4.9,4.9,3,0.00,,---,0.00,VWS V14.01,2013-04-26 18:44:00,
2013-04-26 11:49:00,76.8,-9.8,29.95,East,81,3.6,3.6,3,0.00,,---,0.00,VWS V14.01,2013-04-26 18:49:00,
2013-04-26 11:54:00,76.8,-9.8,29.95,NE,43,5.8,5.8,3,0.00,,---,0.00,VWS V14.01,2013-04-26 18:54:00,
2013-04-26 11:59:00,77.5,-9.3,29.95,NE,51,4.0,5.4,3,0.00,,---,0.00,VWS V14.01,2013-04-26 18:59:00,
2013-04-26 12:04:00,77.5,-9.3,29.95,North,4,2.7,4.0,3,0.00,,---,0.00,VWS V14.01,2013-04-26 19:04:00,
2013-04-26 12:09:00,77.5,-9.3,29.95,NNW,341,0.0,0.0,3,0.00,,---,0.00,VWS V14.01,2013-04-26 19:09:00,
2013-04-26 12:14:00,77.7,-9.2,29.95,SW,230,0.0,2.7,3,0.00,,---,0.00,VWS V14.01,2013-04-26 19:14:00,
2013-04-26 12:19:00,77.4,-9.4,29.92,North,4,0.0,4.0,3,0.00,,---,0.00,VWS V14.01,2013-04-26 19:19:00,
2013-04-26 12:25:00,77.4,-9.4,29.92,East,98,0.0,7.2,3,0.00,,---,0.00,VWS V14.01,2013-04-26 19:25:00,
2013-04-26 12:30:00,79.5,-16.1,29.92,ESE,121,5.4,5.4,2,0.00,,---,0.00,VWS V14.01,2013-04-26 19:30:00,
2013-04-26 12:35:00,80.4,-15.5,29.92,ENE,60,4.9,4.9,2,0.00,,---,0.00,VWS V14.01,2013-04-26 19:35:00,
2013-04-26 12:40:00,80.8,-15.3,29.92,SSE,164,0.0,0.0,2,0.00,,---,0.00,VWS V14.01,2013-04-26 19:40:00,
2013-04-26 12:45:00,80.8,-15.3,29.92,ENE,57,6.3,6.3,2,0.00,,---,0.00,VWS V14.01,2013-04-26 19:45:00,
2013-04-26 12:50:00,81.3,-14.9,29.92,NNW,331,0.0,0.0,2,0.00,,---,0.00,VWS V14.01,2013-04-26 19:50:00,
2013-04-26 12:55:00,81.3,-14.9,29.92,NW,307,8.3,8.3,2,0.00,,---,0.00,VWS V14.01,2013-04-26 19:55:00,
2013-04-26 13:00:00,82.0,-14.5,29.92,SE,144,4.9,4.9,2,0.00,,---,0.00,VWS V14.01,2013-04-26 20:00:00,
2013-04-26 13:05:00,82.0,-14.5,29.92,SE,128,0.0,0.0,2,0.00,,---,0.00,VWS V14.01,2013-04-26 20:05:00,
2013-04-26 13:10:00,81.7,-14.7,29.92,South,171,3.6,3.6,2,0.00,,---,0.00,VWS V14.01,2013-04-26 20:10:00,
2013-04-26 13:15:00,81.0,-15.2,29.92,NE,49,2.2,2.2,2,0.00,,---,0.00,VWS V14.01,2013-04-26 20:15:00,
2013-04-26 13:20:00,79.5,-16.1,29.92,North,5,0.0,0.0,2,0.00,,---,0.00,VWS V14.01,2013-04-26 20:20:00,
2013-04-26 13:25:00,79.5,-16.1,29.92,East,97,3.6,4.9,2,0.00,,---,0.00,VWS V14.01,2013-04-26 20:25:00,
2013-04-26 13:30:00,79.5,-16.1,29.92,East,96,5.4,8.3,2,0.00,,---,0.00,VWS V14.01,2013-04-26 20:30:00,
2013-04-26 13:35:00,79.5,-16.1,29.89,WSW,245,3.1,3.1,2,0.00,,---,0.00,VWS V14.01,2013-04-26 20:35:00,
2013-04-26 13:40:00,82.0,-14.5,29.89,SSE,154,0.0,0.0,2,0.00,,---,0.00,VWS V14.01,2013-04-26 20:40:00,
2013-04-26 13:45:00,81.5,-14.8,29.89,SE,138,4.9,7.6,2,0.00,,---,0.00,VWS V14.01,2013-04-26 20:45:00,
2013-04-26 13:50:00,81.3,-14.9,29.89,SSW,210,0.0,3.6,2,0.00,,---,0.00,VWS V14.01,2013-04-26 20:50:00,
2013-04-26 13:55:00,81.5,-14.8,29.89,NNW,338,0.0,4.9,2,0.00,,---,0.00,VWS V14.01,2013-04-26 20:55:00,
2013-04-26 14:00:00,81.7,-14.7,29.89,WNW,293,0.0,0.0,2,0.00,,---,0.00,VWS V14.01,2013-04-26 21:00:00,
2013-04-26 14:05:00,81.7,-14.7,29.89,SW,224,0.0,0.0,2,0.00,,---,0.00,VWS V14.01,2013-04-26 21:05:00,
2013-04-26 14:10:00,82.4,-14.2,29.89,NNE,23,5.8,6.3,2,0.00,,---,0.00,VWS V14.01,2013-04-26 21:10:00,
2013-04-26 14:15:00,81.3,-14.9,29.89,NNE,24,5.4,5.4,2,0.00,,---,0.00,VWS V14.01,2013-04-26 21:15:00,
2013-04-26 14:20:00,81.3,-14.9,29.89,NNW,346,6.3,6.3,2,0.00,,---,0.00,VWS V14.01,2013-04-26 21:20:00,
2013-04-26 14:25:00,81.0,-15.2,29.89,North,353,4.0,7.6,2,0.00,,---,0.00,VWS V14.01,2013-04-26 21:25:00,
2013-04-26 14:30:00,82.4,-14.2,29.89,NW,326,8.1,8.1,2,0.00,,---,0.00,VWS V14.01,2013-04-26 21:30:00,
2013-04-26 14:35:00,82.4,-14.2,29.89,NNW,329,5.8,5.8,2,0.00,,---,0.00,VWS V14.01,2013-04-26 21:35:00,
2013-04-26 14:40:00,83.1,-13.8,29.89,NE,48,0.0,0.0,2,0.00,,---,0.00,VWS V14.01,2013-04-26 21:40:00,
2013-04-26 14:45:00,82.6,-14.1,29.89,North,357,0.0,0.0,2,0.00,,---,0.00,VWS V14.01,2013-04-26 21:45:00,
2013-04-26 14:51:00,82.6,-14.1,29.89,South,176,0.0,0.0,2,0.00,,---,0.00,VWS V14.01,2013-04-26 21:51:00,
2013-04-26 14:56:00,82.6,-14.1,29.89,SSW,205,0.0,0.0,2,0.00,,---,0.00,VWS V14.01,2013-04-26 21:56:00,
2013-04-26 15:01:00,82.6,-14.1,29.89,SW,233,0.0,0.0,2,0.00,,---,0.00,VWS V14.01,2013-04-26 22:01:00,
2013-04-26 15:06:00,82.6,-14.1,29.89,WSW,244,0.0,0.0,2,0.00,,---,0.00,VWS V14.01,2013-04-26 22:06:00,
2013-04-26 15:11:00,79.9,-15.9,29.86,WSW,249,4.9,4.9,2,0.00,,---,0.00,VWS V14.01,2013-04-26 22:11:00,
2013-04-26 15:16:00,79.5,-16.1,29.86,SW,220,0.0,3.6,2,0.00,,---,0.00,VWS V14.01,2013-04-26 22:16:00,
2013-04-26 15:21:00,79.2,-16.3,29.86,WSW,238,0.0,0.0,2,0.00,,---,0.00,VWS V14.01,2013-04-26 22:21:00,
2013-04-26 15:26:00,79.2,-16.3,29.86,SE,127,3.6,3.6,2,0.00,,---,0.00,VWS V14.01,2013-04-26 22:26:00,
2013-04-26 15:31:00,79.0,-16.5,29.86,South,172,3.6,3.6,2,0.00,,---,0.00,VWS V14.01,2013-04-26 22:31:00,
2013-04-26 15:36:00,79.0,-16.5,29.86,South,175,6.3,6.3,2,0.00,,---,0.00,VWS V14.01,2013-04-26 22:36:00,
2013-04-26 15:41:00,79.0,-16.5,29.86,SE,140,4.9,4.9,2,0.00,,---,0.00,VWS V14.01,2013-04-26 22:41:00,
2013-04-26 15:46:00,79.0,-16.5,29.86,SE,139,8.1,8.1,2,0.00,,---,0.00,VWS V14.01,2013-04-26 22:46:00,
2013-04-26 15:51:00,79.0,-16.5,29.86,SSE,150,6.3,6.3,2,0.00,,---,0.00,VWS V14.01,2013-04-26 22:51:00,
2013-04-26 15:56:00,79.0,-16.5,29.86,SSE,168,5.8,5.8,2,0.00,,---,0.00,VWS V14.01,2013-04-26 22:56:00,
2013-04-26 16:01:00,78.6,-8.6,29.86,SE,129,0.0,0.0,3,0.00,,---,0.00,VWS V14.01,2013-04-26 23:01:00,
2013-04-26 16:06:00,78.6,-8.6,29.86,SSE,155,0.0,0.0,3,0.00,,---,0.00,VWS V14.01,2013-04-26 23:06:00,
2013-04-26 16:11:00,79.2,-16.3,29.86,SSE,150,0.0,0.0,2,0.00,,---,0.00,VWS V14.01,2013-04-26 23:11:00,
2013-04-26 16:16:00,79.2,-16.3,29.86,SE,145,0.0,0.0,2,0.00,,---,0.00,VWS V14.01,2013-04-26 23:16:00,
2013-04-26 16:21:00,80.4,-15.5,29.86,WSW,248,0.0,0.0,2,0.00,,---,0.00,VWS V14.01,2013-04-26 23:21:00,
2013-04-26 16:26:00,81.3,-14.9,29.86,West,269,0.0,0.0,2,0.00,,---,0.00,VWS V14.01,2013-04-26 23:26:00,
2013-04-26 16:31:00,81.5,-14.8,29.86,WNW,291,3.6,3.6,2,0.00,,---,0.00,VWS V14.01,2013-04-26 23:31:00,
2013-04-26 16:36:00,81.9,-14.6,29.86,SSW,208,10.5,10.5,2,0.00,,---,0.00,VWS V14.01,2013-04-26 23:36:00,
2013-04-26 16:41:00,82.0,-14.5,29.86,WNW,284,12.8,12.8,2,0.00,,---,0.00,VWS V14.01,2013-04-26 23:41:00,
2013-04-26 16:46:00,82.0,-14.5,29.86,SE,137,3.1,4.0,2,0.00,,---,0.00,VWS V14.01,2013-04-26 23:46:00,
2013-04-26 16:52:00,81.0,-15.2,29.86,SSW,202,8.3,8.3,2,0.00,,---,0.00,VWS V14.01,2013-04-26 23:52:00,
2013-04-26 17:05:00,80.6,-15.4,29.86,SW,231,0.0,0.0,2,0.00,,---,0.00,VWS V14.01,2013-04-27 00:05:00,
2013-04-26 17:10:00,81.0,-15.2,29.86,SW,221,0.0,0.0,2,0.00,,---,0.00,VWS V14.01,2013-04-27 00:10:00,
2013-04-26 17:16:00,80.8,-15.3,29.86,SSE,166,0.0,0.0,2,0.00,,---,0.00,VWS V14.01,2013-04-27 00:16:00,
2013-04-26 17:21:00,80.8,-15.3,29.86,SSW,212,0.0,0.0,2,0.00,,---,0.00,VWS V14.01,2013-04-27 00:21:00,
2013-04-26 17:26:00,80.8,-15.3,29.86,SSW,213,0.0,0.0,2,0.00,,---,0.00,VWS V14.01,2013-04-27 00:26:00,
2013-04-26 17:31:00,80.6,-15.4,29.86,SW,216,0.0,0.0,2,0.00,,---,0.00,VWS V14.01,2013-04-27 00:31:00,
2013-04-26 17:36:00,80.2,-15.6,29.86,SE,146,0.0,0.0,2,0.00,,---,0.00,VWS V14.01,2013-04-27 00:36:00,
2013-04-26 17:41:00,79.9,-15.9,29.86,SSW,210,0.0,0.0,2,0.00,,---,0.00,VWS V14.01,2013-04-27 00:41:00,
2013-04-26 17:46:00,79.9,-15.9,29.86,WSW,240,0.0,0.0,2,0.00,,---,0.00,VWS V14.01,2013-04-27 00:46:00,
2013-04-26 17:51:00,79.9,-15.9,29.86,SW,236,0.0,0.0,2,0.00,,---,0.00,VWS V14.01,2013-04-27 00:51:00,
2013-04-26 17:56:00,79.0,-16.5,29.86,SW,235,0.0,0.0,2,0.00,,---,0.00,VWS V14.01,2013-04-27 00:56:00,
2013-04-26 18:01:00,79.2,-16.3,29.86,SW,219,0.0,0.0,2,0.00,,---,0.00,VWS V14.01,2013-04-27 01:01:00,
2013-04-26 18:06:00,79.3,-16.2,29.86,WSW,245,0.0,0.0,2,0.00,,---,0.00,VWS V14.01,2013-04-27 01:06:00,
2013-04-26 18:11:00,79.2,-16.3,29.86,SW,227,0.0,0.0,2,0.00,,---,0.00,VWS V14.01,2013-04-27 01:11:00,
2013-04-26 18:16:00,78.8,-16.6,29.86,West,264,0.0,0.0,2,0.00,,---,0.00,VWS V14.01,2013-04-27 01:16:00,
2013-04-26 18:21:00,78.6,-8.6,29.86,SSW,204,4.0,4.0,3,0.00,,---,0.00,VWS V14.01,2013-04-27 01:21:00,
2013-04-26 18:26:00,78.3,-8.8,29.86,SW,222,3.1,3.1,3,0.00,,---,0.00,VWS V14.01,2013-04-27 01:26:00,
2013-04-26 18:31:00,78.1,-9.0,29.86,WNW,282,6.3,6.3,3,0.00,,---,0.00,VWS V14.01,2013-04-27 01:31:00,
2013-04-26 18:36:00,76.6,-9.9,29.86,WSW,248,3.1,3.1,3,0.00,,---,0.00,VWS V14.01,2013-04-27 01:36:00,
2013-04-26 18:41:00,76.6,-9.9,29.86,SW,220,3.6,4.0,3,0.00,,---,0.00,VWS V14.01,2013-04-27 01:41:00,
2013-04-26 18:46:00,75.7,-10.5,29.86,WSW,237,0.0,3.1,3,0.00,,---,0.00,VWS V14.01,2013-04-27 01:46:00,
2013-04-26 18:52:00,75.0,-11.0,29.86,SW,233,0.0,0.0,3,0.00,,---,0.00,VWS V14.01,2013-04-27 01:52:00,
2013-04-26 18:57:00,74.8,-11.1,29.86,SW,230,5.8,6.3,3,0.00,,---,0.00,VWS V14.01,2013-04-27 01:57:00,
2013-04-26 19:02:00,74.5,-11.4,29.86,SSW,213,5.8,5.8,3,0.00,,---,0.00,VWS V14.01,2013-04-27 02:02:00,
2013-04-26 19:07:00,74.1,-11.6,29.86,SW,229,7.6,7.6,3,0.00,,---,0.00,VWS V14.01,2013-04-27 02:07:00,
2013-04-26 19:12:00,73.9,-11.7,29.89,SW,236,3.6,5.8,3,0.00,,---,0.00,VWS V14.01,2013-04-27 02:12:00,
2013-04-26 19:17:00,73.0,-6.5,29.89,SSW,211,5.8,5.8,4,0.00,,---,0.00,VWS V14.01,2013-04-27 02:17:00,
2013-04-26 19:22:00,73.2,-6.4,29.89,SW,222,3.6,3.6,4,0.00,,---,0.00,VWS V14.01,2013-04-27 02:22:00,
2013-04-26 19:27:00,73.2,-6.4,29.89,WSW,237,5.8,5.8,4,0.00,,---,0.00,VWS V14.01,2013-04-27 02:27:00,
2013-04-26 19:32:00,73.2,-6.4,29.89,SW,228,7.6,7.6,4,0.00,,---,0.00,VWS V14.01,2013-04-27 02:32:00,
2013-04-26 19:37:00,73.2,-6.4,29.89,SW,222,8.1,8.1,4,0.00,,---,0.00,VWS V14.01,2013-04-27 02:37:00,
2013-04-26 19:42:00,73.2,-6.4,29.89,SW,225,6.3,8.1,4,0.00,,---,0.00,VWS V14.01,2013-04-27 02:42:00,
2013-04-26 19:47:00,73.2,-6.4,29.89,SW,226,7.6,8.1,4,0.00,,---,0.00,VWS V14.01,2013-04-27 02:47:00,
2013-04-26 19:52:00,72.5,-6.9,29.89,WSW,254,8.3,8.3,4,0.00,,---,0.00,VWS V14.01,2013-04-27 02:52:00,
2013-04-26 19:57:00,72.5,-6.9,29.89,SW,234,5.4,5.4,4,0.00,,---,0.00,VWS V14.01,2013-04-27 02:57:00,
2013-04-26 20:02:00,72.5,-6.9,29.89,SW,229,0.0,0.0,4,0.00,,---,0.00,VWS V14.01,2013-04-27 03:02:00,
2013-04-26 20:07:00,72.5,-6.9,29.89,SW,220,0.0,0.0,4,0.00,,---,0.00,VWS V14.01,2013-04-27 03:07:00,
2013-04-26 20:12:00,72.0,-7.3,29.89,SSW,210,0.0,0.0,4,0.00,,---,0.00,VWS V14.01,2013-04-27 03:12:00,
2013-04-26 20:18:00,72.0,-7.3,29.89,WSW,251,0.0,0.0,4,0.00,,---,0.00,VWS V14.01,2013-04-27 03:18:00,
2013-04-26 20:23:00,71.8,-7.4,29.89,SW,235,0.0,0.0,4,0.00,,---,0.00,VWS V14.01,2013-04-27 03:23:00,
2013-04-26 20:28:00,71.8,-7.4,29.89,West,262,0.0,0.0,4,0.00,,---,0.00,VWS V14.01,2013-04-27 03:28:00,
2013-04-26 20:33:00,71.8,-7.4,29.89,SW,214,0.0,0.0,4,0.00,,---,0.00,VWS V14.01,2013-04-27 03:33:00,
2013-04-26 20:38:00,71.8,-7.4,29.89,West,261,0.0,0.0,4,0.00,,---,0.00,VWS V14.01,2013-04-27 03:38:00,
2013-04-26 20:43:00,71.8,-7.4,29.89,West,272,0.0,0.0,4,0.00,,---,0.00,VWS V14.01,2013-04-27 03:43:00,
2013-04-26 20:48:00,71.8,-7.4,29.89,West,272,0.0,0.0,4,0.00,,---,0.00,VWS V14.01,2013-04-27 03:48:00,
2013-04-26 20:53:00,71.8,-7.4,29.89,West,272,0.0,0.0,4,0.00,,---,0.00,VWS V14.01,2013-04-27 03:53:00,
2013-04-26 20:58:00,71.8,-7.4,29.92,West,275,0.0,0.0,4,0.00,,---,0.00,VWS V14.01,2013-04-27 03:58:00,
2013-04-26 21:01:00,71.8,-7.4,29.92,West,275,0.0,0.0,4,0.00,,---,0.00,VWS V14.01,2013-04-27 04:01:00,
2013-04-26 21:02:00,71.8,-7.4,29.92,West,275,0.0,0.0,4,0.00,,---,0.00,VWS V14.01,2013-04-27 04:02:00,
2013-04-26 21:03:00,71.8,-7.4,29.92,West,275,0.0,0.0,4,0.00,,---,0.00,VWS V14.01,2013-04-27 04:03:00,
2013-04-26 21:08:00,70.0,-8.6,29.92,NNE,19,0.0,0.0,4,0.00,,---,0.00,VWS V14.01,2013-04-27 04:08:00,
2013-04-26 21:13:00,70.0,-8.6,29.92,NNE,17,0.0,0.0,4,0.00,,---,0.00,VWS V14.01,2013-04-27 04:13:00,
2013-04-26 21:18:00,70.0,-8.6,29.92,NNE,17,0.0,0.0,4,0.00,,---,0.00,VWS V14.01,2013-04-27 04:18:00,
2013-04-26 21:23:00,68.2,-5.3,29.92,NNE,17,0.0,0.0,5,0.00,,---,0.00,VWS V14.01,2013-04-27 04:23:00,
2013-04-26 21:28:00,68.2,-5.3,29.92,NNE,17,0.0,0.0,5,0.00,,---,0.00,VWS V14.01,2013-04-27 04:28:00,
2013-04-26 21:34:00,68.0,-5.4,29.92,NNE,17,0.0,0.0,5,0.00,,---,0.00,VWS V14.01,2013-04-27 04:34:00,
2013-04-26 21:39:00,68.0,-5.4,29.92,NNE,17,0.0,0.0,5,0.00,,---,0.00,VWS V14.01,2013-04-27 04:39:00,
2013-04-26 21:44:00,68.0,-5.4,29.92,NNE,17,0.0,0.0,5,0.00,,---,0.00,VWS V14.01,2013-04-27 04:44:00,
2013-04-26 21:49:00,68.0,-5.4,29.92,NNE,31,0.0,0.0,5,0.00,,---,0.00,VWS V14.01,2013-04-27 04:49:00,
2013-04-26 21:54:00,66.9,-6.2,29.92,NNE,30,0.0,0.0,5,0.00,,---,0.00,VWS V14.01,2013-04-27 04:54:00,
2013-04-26 21:59:00,67.1,-6.1,29.92,NNE,30,0.0,0.0,5,0.00,,---,0.00,VWS V14.01,2013-04-27 04:59:00,
2013-04-26 22:04:00,67.1,-6.1,29.92,SE,125,0.0,0.0,5,0.00,,---,0.00,VWS V14.01,2013-04-27 05:04:00,
2013-04-26 22:09:00,66.6,-6.5,29.92,SE,124,0.0,0.0,5,0.00,,---,0.00,VWS V14.01,2013-04-27 05:09:00,
2013-04-26 22:14:00,65.8,-7.0,29.92,NNW,345,0.0,0.0,5,0.00,,---,0.00,VWS V14.01,2013-04-27 05:14:00,
2013-04-26 22:19:00,65.8,-7.0,29.92,NW,316,0.0,0.0,5,0.00,,---,0.00,VWS V14.01,2013-04-27 05:19:00,
2013-04-26 22:24:00,65.8,-7.0,29.92,NNE,19,0.0,0.0,5,0.00,,---,0.00,VWS V14.01,2013-04-27 05:24:00,
2013-04-26 22:29:00,65.8,-7.0,29.92,WSW,237,0.0,0.0,5,0.00,,---,0.00,VWS V14.01,2013-04-27 05:29:00,
2013-04-26 22:34:00,64.2,-4.4,29.92,NE,51,0.0,0.0,6,0.00,,---,0.00,VWS V14.01,2013-04-27 05:34:00,
2013-04-26 22:39:00,64.2,-4.4,29.92,NE,51,0.0,0.0,6,0.00,,---,0.00,VWS V14.01,2013-04-27 05:39:00,
2013-04-26 22:44:00,63.9,-4.7,29.92,NE,51,0.0,0.0,6,0.00,,---,0.00,VWS V14.01,2013-04-27 05:44:00,
2013-04-26 22:49:00,63.5,-4.9,29.92,NE,51,0.0,0.0,6,0.00,,---,0.00,VWS V14.01,2013-04-27 05:49:00,
2013-04-26 22:54:00,63.0,-5.3,29.95,NE,51,0.0,0.0,6,0.00,,---,0.00,VWS V14.01,2013-04-27 05:54:00,
2013-04-26 22:59:00,62.6,-5.6,29.95,NE,51,0.0,0.0,6,0.00,,---,0.00,VWS V14.01,2013-04-27 05:59:00,
2013-04-26 23:04:00,62.6,-5.6,29.95,SW,215,0.0,0.0,6,0.00,,---,0.00,VWS V14.01,2013-04-27 06:04:00,
2013-04-26 23:09:00,62.6,-5.6,29.95,SW,218,0.0,0.0,6,0.00,,---,0.00,VWS V14.01,2013-04-27 06:09:00,
2013-04-26 23:14:00,62.1,-6.0,29.95,SW,224,0.0,0.0,6,0.00,,---,0.00,VWS V14.01,2013-04-27 06:14:00,
2013-04-26 23:19:00,61.7,-6.2,29.95,SW,226,0.0,0.0,6,0.00,,---,0.00,VWS V14.01,2013-04-27 06:19:00,
2013-04-26 23:25:00,60.4,-4.0,29.95,SW,226,0.0,0.0,7,0.00,,---,0.00,VWS V14.01,2013-04-27 06:25:00,
2013-04-26 23:30:00,60.1,-4.2,29.95,SW,225,0.0,0.0,7,0.00,,---,0.00,VWS V14.01,2013-04-27 06:30:00,
2013-04-26 23:35:00,60.1,-4.2,29.95,SW,225,0.0,0.0,7,0.00,,---,0.00,VWS V14.01,2013-04-27 06:35:00,
2013-04-26 23:40:00,59.7,-4.5,29.95,SW,225,0.0,0.0,7,0.00,,---,0.00,VWS V14.01,2013-04-27 06:40:00,
2013-04-26 23:45:00,59.9,-4.3,29.95,SW,225,0.0,0.0,7,0.00,,---,0.00,VWS V14.01,2013-04-27 06:45:00,
2013-04-26 23:50:00,59.7,-4.5,29.95,WSW,256,0.0,0.0,7,0.00,,---,0.00,VWS V14.01,2013-04-27 06:50:00,
2013-04-26 23:55:00,60.1,-4.2,29.95,WSW,242,0.0,0.0,7,0.00,,---,0.00,VWS V14.01,2013-04-27 06:55:00,